Flag Weather past 2 weeks in Euskirchen, North Rhine-Westphalia, Germany

Now
41 °F

Passing clouds.


Feels Like: 38 °F
Forecast: 38 / 48 °F
Wind: 5 mph from East

Location: Noervenich

Current Time: Nov 27, 2014 at 7:22:14 AM

Latest Report: Nov 27, 2014 at 6:20 AM


Visibility: N/A

Pressure: 29.80 "Hg

Humidity: 87%

Dew point: 37 °F

Location of EuskirchenLocation

Historic Weather in Euskirchen — Graph

°F

Euskirchen temperature yesterday

Maximum temperature yesterday: 43 °F (at 2:20 AM)
Minimum temperature yesterday: 39 °F (at 8:20 AM)
Average temperature yesterday: 41 °F

Past Weeks' High & Low Weather Summary

 TemperatureHumidityPressure
High55 °F (Nov 14, 12:20 PM)100% (Nov 12, 11:20 PM)30.33 "Hg (Nov 12, 11:20 PM)
Low28 °F (Nov 25, 4:20 AM)66% (Nov 21, 1:20 PM)29.53 "Hg (Nov 16, 1:20 PM)
Average45 °F89%29.94 "Hg
* Reported Nov 12 5:20 AM — Nov 27 5:20 AM, Euskirchen, Weather by CustomWeather, © 2014

Note: Actual official high and low records may vary slightly from our data, if they occured in-between our weather recording intervals... More about our weather records

Advertising

Euskirchen weather history for previous 24 hours

 ConditionsComfort  
Time TempWeatherWind HumidityBarometerVisibility
5:20 AM
Nov 27
41 °FPassing clouds.5 mph93%29.80 "HgN/A
4:20 AM43 °FPassing clouds.5 mph87%29.80 "HgN/A
3:20 AM41 °FPassing clouds.5 mph93%29.83 "HgN/A
2:20 AM41 °FPassing clouds.6 mph93%29.83 "HgN/A
1:20 AM41 °FPassing clouds.5 mph93%29.86 "HgN/A
12:20 AM41 °FPassing clouds.7 mph93%29.89 "HgN/A
11:20 PM
Nov 26
41 °FPassing clouds.6 mph87%29.89 "HgN/A
10:20 PM41 °FPassing clouds.7 mph87%29.89 "HgN/A
9:20 PM41 °FPartly cloudy.7 mph87%29.92 "HgN/A
8:20 PM41 °FPartly cloudy.7 mph87%29.89 "HgN/A
7:20 PM41 °FPassing clouds.8 mph87%29.92 "Hg6 mi
6:20 PM41 °FPassing clouds.9 mph87%29.89 "Hg6 mi
5:20 PM41 °FPartly cloudy.7 mph87%29.92 "Hg5 mi
4:20 PM41 °FFog.7 mph87%29.92 "Hg3 mi
3:20 PM41 °FFog.8 mph87%29.92 "Hg3 mi
2:20 PM41 °FLight rain. Fog.8 mph87%29.95 "Hg3 mi
1:20 PM41 °FRain. Fog.8 mph87%29.95 "Hg2 mi
1:04 PM41 °FRain. Fog.7 mph87%29.95 "Hg3 mi
12:20 PM43 °FBroken clouds.8 mph76%29.98 "Hg5 mi
11:20 AM41 °FPartly sunny.6 mph81%29.98 "Hg6 mi
10:20 AM41 °FBroken clouds.8 mph81%29.98 "Hg6 mi
9:20 AM41 °FBroken clouds.7 mph76%29.98 "Hg6 mi
8:20 AM39 °FPartly sunny.8 mph81%30.01 "Hg5 mi
7:20 AM41 °FPassing clouds.7 mph81%30.01 "HgN/A
Weather by CustomWeather, © 2014

See weather overviewHow to use our weather pages